Regional Weather Roundup
Issued by NWS Sioux Falls, SD

Home | Current Version | Previous Version | Text Only | Print | Product List | Glossary Off
Versions: 1 2 3 4 5 6 7 8 9 10 11 12 13 14 15 16 17 18 19 20 21 22 23 24 25 26 27 28 29 30 31 32 33 34 35 36 37 38 39 40 41 42 43 44 45 46 47 48 49 50

000
ASUS43 KFSD 301102
RWRFSD

WEATHER ROUNDUP FOR SE SOUTH DAKOTA/SW MINNESOTA/NW IOWA
NATIONAL WEATHER SERVICE SIOUX FALLS SD
600 AM CDT SAT MAY 30 2015

NOTE: "FAIR" INDICATES FEW OR NO CLOUDS BELOW 12,000 FEET WITH NO
SIGNIFICANT WEATHER AND OR OBSTRUCTIONS TO VISIBILITY.


SDZ038>040-050-052>070-301200-
SOUTHEAST SOUTH DAKOTA

CITY           SKY/WX    TMP DP  RH WIND       PRES   REMARKS
BROOKINGS      PTCLDY    39  34  81 N14G21    30.25S
CHAMBERLAIN    NOT AVBL
HURON          PTCLDY    38  34  85 N12       30.31R
MADISON        FAIR      37  37 100 N15       30.24R
MITCHELL       CLEAR     40  37  89 N9        30.29R
SIOUX FALLS    MOCLDY    44  38  79 N13       30.23R
WINNER         FAIR      38  34  85 N5        30.32R
YANKTON        MOCLDY    45  39  81 NW13      30.21S
$$

MNZ071-072-080-081-089-090-097-098-301200-
SOUTHWEST MINNESOTA

CITY           SKY/WX    TMP DP  RH WIND       PRES   REMARKS
FAIRMONT       MOCLDY    48  39  71 N16       30.14R
JACKSON        PTCLDY    45  43  93 N15       30.16R
LUVERNE        CLOUDY    45  39  81 N9G16     30.21R
MARSHALL       CLEAR     41  34  75 N13       30.23R
MONTEVIDEO     CLEAR     41  39  93 N10       30.25R
PIPESTONE      MOCLDY    43  37  81 N9        30.21R
REDWOOD FALLS  CLEAR     45  41  86 N8        30.20R
TRACY          PTCLDY    43  41  93 N10       30.22R
WINDOM         PTCLDY    45  43  93 N15       30.18R
WORTHINGTON    MOCLDY    45  37  76 N16G23    30.18R
$$

IAZ001>003-012>014-020>022-031-032-NEZ013-014-SDZ071-301200-
NORTHWEST IOWA

CITY           SKY/WX    TMP DP  RH WIND       PRES   REMARKS
DENISON        CLOUDY    52  52 100 N14       30.10R
ESTHERVILLE    PTCLDY    47  43  86 N16       30.14R
SIOUX CITY     CLOUDY    51  43  74 N15       30.16R
SPENCER        CLOUDY    49  43  80 N17       30.14R
$$

ABBREVIATIONS USED IN REMARKS
   TC - TEMPERATURE IN CELSIUS
  WCI - WIND CHILL INDEX
   HX - HEAT INDEX
  VSB - VISIBILITY




USA.gov is the U.S. government's official web portal to all federal, state and local government web resources and services.